Temp
-10 -10 -10 -10 -9 -9 -10 -10 -10 -10 -10 -10 -10 -10 -11 -11 -11 -11 -12 -11 -11 -12 -11 -12 -12 -12 -12 -12 -12 -13 -13 -13 -13 -13 -13 -14 -13 -14 -14 -14 -14 -14 -14 -14 -14 -14 -13 -12 -13 -13 -13 -13 -13 -12
-10 -10 -10 -10 -10 -10 -10 -10 -10 -11 -11 -11 -11 -12 -12 -12 -12 -12 -12 -12 -12 -12 -12 -13 -13 -13 -13 -13 -13 -13 -13 -13 -14 -14 -14 -15 -15 -15 -15 -15 -15 -15 -15 -15 -15 -14 -14 -14 -14 -13 -14 -13 -13 -13
-11 -11 -11 -11 -11 -11 -11 -11 -11 -12 -12 -12 -12 -12 -13 -13 -13 -13 -13 -13 -13 -13 -13 -13 -13 -14 -14 -14 -14 -14 -14 -14 -15 -15 -15 -15 -15 -15 -15 -15 -15 -15 -15 -15 -15 -15 -15 -14 -14 -14 -14 -14 -14 -14
-11 -11 -11 -11 -11 -12 -12 -12 -12 -13 -13 -13 -13 -13 -13 -13 -13 -13 -13 -13 -14 -14 -14 -14 -14 -14 -14 -14 -14 -15 -15 -15 -15 -15 -15 -16 -16 -16 -15 -15 -15 -15 -15 -15 -15 -15 -15 -15 -15 -14 -14 -14 -14 -14
-11 -11 -12 -12 -12 -13 -13 -13 -14 -14 -14 -14 -14 -14 -14 -14 -14 -14 -14 -14 -14 -14 -14 -14 -15 -15 -15 -15 -15 -15 -15 -15 -15 -16 -16 -16 -16 -16 -15 -15 -15 -15 -15 -15 -14 -15 -15 -15 -15 -15 -15 -15 -14 -14
-12 -12 -12 -12 -13 -13 -14 -14 -14 -14 -14 -14 -14 -14 -14 -15 -15 -15 -15 -15 -15 -15 -15 -15 -15 -15 -16 -16 -16 -16 -16 -16 -16 -16 -16 -16 -16 -16 -15 -15 -16 -15 -15 -15 -14 -15 -14 -15 -16 -15 -15 -15 -14 -14
-12 -13 -13 -13 -13 -13 -14 -14 -14 -14 -14 -15 -15 -15 -15 -16 -16 -15 -15 -15 -15 -15 -16 -16 -16 -16 -16 -16 -16 -16 -16 -16 -16 -16 -16 -16 -16 -16 -16 -16 -16 -15 -15 -15 -15 -15 -16 -16 -16 -15 -15 -15 -14 -14
-13 -14 -14 -14 -14 -14 -14 -15 -15 -15 -15 -16 -16 -16 -16 -16 -16 -16 -16 -16 -16 -16 -16 -16 -16 -16 -16 -16 -16 -16 -16 -16 -16 -16 -16 -16 -17 -16 -16 -15 -16 -15 -15 -15 -15 -15 -15 -15 -15 -15 -14 -14 -14 -15
-15 -15 -15 -15 -15 -15 -15 -15 -15 -16 -16 -17 -17 -17 -16 -16 -16 -16 -16 -16 -16 -16 -17 -17 -17 -17 -17 -17 -17 -17 -16 -16 -17 -17 -17 -16 -16 -16 -15 -16 -15 -15 -15 -15 -15 -15 -15 -15 -15 -15 -15 -15 -14 -14
-16 -16 -16 -16 -16 -16 -16 -16 -16 -17 -17 -17 -17 -17 -16 -16 -16 -16 -16 -16 -16 -17 -17 -17 -17 -17 -17 -17 -17 -17 -17 -17 -17 -17 -16 -16 -16 -16 -15 -15 -15 -15 -15 -15 -15 -15 -15 -15 -15 -15 -15 -14 -14 -14
-16 -16 -16 -16 -16 -17 -17 -17 -17 -17 -17 -17 -16 -16 -16 -16 -16 -16 -16 -16 -17 -17 -17 -17 -17 -17 -17 -17 -16 -16 -16 -16 -16 -16 -16 -16 -16 -16 -15 -15 -15 -15 -15 -15 -15 -15 -15 -15 -14 -15 -14 -14 -14 -13
-16 -17 -16 -17 -17 -17 -17 -17 -17 -17 -17 -17 -17 -16 -16 -16 -16 -16 -16 -17 -17 -17 -17 -17 -17 -17 -17 -16 -16 -16 -16 -16 -16 -15 -15 -15 -15 -15 -15 -15 -15 -15 -15 -15 -15 -15 -15 -15 -15 -14 -14 -14 -13 -14
-17 -17 -17 -17 -17 -17 -17 -17 -17 -17 -17 -17 -17 -16 -16 -16 -16 -16 -16 -17 -17 -17 -17 -17 -17 -16 -16 -16 -16 -16 -16 -15 -15 -15 -15 -15 -15 -14 -15 -15 -15 -15 -15 -15 -15 -15 -15 -14 -14 -13 -13 -14 -13 -13
-17 -17 -17 -17 -17 -17 -17 -17 -17 -17 -17 -17 -16 -17 -17 -16 -16 -16 -16 -17 -17 -17 -17 -17 -16 -16 -16 -16 -16 -15 -15 -15 -15 -15 -15 -15 -14 -15 -15 -15 -15 -15 -15 -14 -14 -14 -14 -14 -13 -13 -13 -13 -13 -13
-16 -16 -17 -17 -17 -17 -17 -17 -17 -17 -17 -17 -17 -17 -17 -16 -17 -17 -17 -17 -17 -16 -17 -16 -16 -16 -16 -16 -16 -16 -15 -15 -15 -15 -15 -15 -15 -15 -15 -15 -14 -14 -14 -14 -14 -14 -14 -13 -13 -13 -13 -13 -12 -12
-16 -16 -17 -17 -17 -17 -17 -17 -17 -17 -17 -17 -17 -17 -17 -17 -17 -17 -17 -17 -16 -17 -16 -16 -16 -16 -16 -16 -16 -15 -15 -15 -15 -15 -15 -14 -14 -14 -14 -14 -14 -14 -14 -14 -14 -14 -14 -13 -13 -13 -13 -13 -12 -12
-17 -17 -17 -17 -18 -18 -18 -17 -17 -17 -17 -17 -17 -17 -17 -17 -17 -17 -17 -17 -16 -17 -17 -16 -16 -16 -16 -16 -16 -16 -16 -15 -15 -15 -14 -14 -14 -14 -14 -14 -14 -14 -14 -14 -14 -14 -14 -13 -13 -12 -13 -13 -12 -12
-17 -18 -18 -18 -18 -18 -17 -17 -17 -17 -17 -17 -17 -17 -17 -17 -17 -17 -17 -17 -16 -16 -16 -16 -16 -16 -16 -16 -16 -16 -15 -15 -15 -15 -15 -15 -15 -14 -14 -14 -14 -13 -13 -13 -13 -13 -13 -13 -12 -12 -12 -12 -12 -12
-18 -18 -18 -18 -18 -18 -18 -18 -17 -17 -17 -17 -17 -17 -17 -17 -17 -17 -16 -16 -16 -16 -16 -16 -16 -16 -16 -16 -16 -16 -15 -15 -15 -15 -15 -15 -15 -15 -14 -14 -14 -14 -13 -13 -13 -13 -13 -13 -13 -13 -12 -12 -12 -12
-18 -18 -18 -18 -18 -18 -18 -17 -17 -17 -17 -17 -17 -17 -17 -17 -17 -17 -16 -17 -16 -16 -16 -16 -16 -16 -15 -15 -16 -16 -16 -15 -15 -14 -15 -14 -14 -14 -14 -14 -14 -13 -13 -13 -13 -13 -13 -13 -12 -13 -13 -12 -12 -12
-18 -19 -19 -18 -18 -18 -18 -18 -17 -17 -17 -17 -17 -17 -17 -17 -17 -17 -17 -16 -16 -16 -16 -16 -16 -15 -15 -16 -16 -15 -16 -15 -15 -15 -15 -15 -14 -14 -14 -14 -14 -13 -14 -13 -13 -13 -14 -13 -13 -13 -13 -12 -13 -12
-19 -19 -19 -19 -18 -18 -18 -18 -18 -18 -18 -17 -17 -17 -17 -17 -17 -17 -17 -17 -17 -17 -16 -16 -16 -16 -16 -15 -15 -15 -15 -15 -15 -15 -15 -15 -15 -14 -14 -14 -14 -14 -14 -13 -13 -13 -13 -13 -13 -12 -13 -13 -13 -13
-19 -19 -19 -19 -18 -18 -18 -18 -18 -18 -18 -18 -17 -17 -17 -17 -17 -17 -17 -17 -17 -17 -16 -16 -16 -16 -15 -15 -15 -15 -15 -15 -15 -15 -15 -15 -15 -14 -14 -14 -14 -14 -14 -14 -14 -13 -13 -13 -13 -13 -13 -13 -13 -13
-19 -19 -19 -19 -18 -18 -18 -18 -18 -18 -18 -18 -18 -18 -18 -17 -17 -17 -17 -17 -17 -17 -17 -16 -16 -16 -16 -15 -15 -15 -15 -15 -15 -15 -15 -14 -14 -14 -15 -14 -14 -14 -14 -14 -14 -14 -13 -14 -14 -14 -14 -14 -14 -14
-19 -19 -19 -19 -18 -18 -18 -18 -18 -18 -18 -18 -18 -18 -18 -17 -17 -17 -17 -17 -17 -17 -17 -16 -16 -16 -16 -15 -15 -15 -15 -15 -15 -15 -15 -15 -15 -15 -15 -15 -15 -14 -14 -14 -14 -14 -14 -14 -14 -14 -14 -14 -14 -14
-19 -19 -19 -19 -18 -18 -18 -18 -18 -18 -18 -18 -18 -18 -18 -17 -17 -17 -17 -17 -17 -16 -16 -16 -16 -16 -16 -16 -16 -16 -16 -15 -15 -15 -15 -15 -15 -15 -15 -15 -15 -15 -15 -15 -14 -14 -14 -14 -14 -14 -14 -14 -14 -14
-19 -19 -19 -19 -18 -18 -18 -18 -18 -18 -18 -18 -18 -18 -17 -17 -17 -17 -17 -16 -16 -16 -16 -16 -16 -16 -16 -16 -16 -16 -16 -16 -16 -15 -15 -15 -15 -15 -15 -15 -15 -15 -15 -15 -15 -15 -15 -15 -15 -15 -14 -14 -15 -15
-19 -19 -19 -18 -18 -18 -19 -18 -18 -18 -18 -18 -18 -17 -17 -17 -17 -17 -16 -16 -16 -16 -16 -16 -16 -16 -16 -16 -16 -16 -16 -16 -16 -16 -16 -16 -15 -15 -15 -15 -15 -15 -15 -15 -15 -15 -15 -15 -15 -15 -15 -15 -15 -15
-19 -19 -18 -18 -19 -19 -18 -18 -18 -18 -18 -18 -17 -17 -17 -17 -17 -16 -16 -16 -16 -16 -16 -16 -16 -16 -16 -16 -16 -16 -16 -16 -16 -16 -16 -16 -16 -16 -16 -16 -16 -16 -16 -16 -16 -16 -16 -16 -16 -16 -16 -16 -16 -15
-18 -18 -18 -18 -19 -19 -18 -18 -18 -17 -17 -18 -17 -17 -17 -17 -16 -16 -16 -16 -16 -16 -16 -16 -16 -16 -16 -16 -16 -16 -16 -16 -16 -16 -16 -16 -16 -16 -16 -16 -16 -16 -16 -16 -16 -16 -16 -16 -16 -16 -16 -16 -16 -16
-18 -18 -18 -18 -19 -18 -18 -18 -18 -17 -17 -17 -17 -17 -17 -16 -16 -16 -16 -16 -16 -16 -16 -16 -16 -16 -16 -16 -16 -17 -17 -17 -16 -16 -17 -17 -17 -17 -17 -17 -17 -17 -17 -17 -17 -17 -17 -17 -17 -17 -17 -17 -17 -17
-18 -18 -18 -18 -18 -18 -18 -18 -18 -17 -17 -17 -17 -17 -17 -16 -16 -16 -16 -16 -16 -16 -16 -16 -17 -17 -17 -17 -17 -17 -17 -17 -17 -17 -17 -17 -17 -17 -17 -17 -17 -17 -17 -17 -17 -17 -17 -17 -17 -17 -17 -17 -17 -17
-18 -18 -18 -18 -18 -18 -17 -17 -18 -17 -17 -17 -17 -16 -16 -16 -16 -16 -16 -16 -16 -16 -16 -17 -17 -17 -17 -17 -17 -17 -17 -17 -17 -17 -17 -17 -17 -17 -17 -17 -17 -17 -17 -17 -17 -17 -17 -17 -17 -18 -18 -18 -18 -19
Height
5781 5779 5776 5773 5770 5767 5764 5761 5758 5755 5753 5750 5747 5745 5742 5739 5737 5736 5733 5729 5728 5727 5723 5723 5721 5719 5718 5716 5715 5714 5713 5711 5710 5710 5711 5711 5710 5711 5711 5713 5714 5715 5716 5718 5719 5720 5723 5729 5731 5737 5740 5745 5753 5760
5772 5769 5766 5763 5761 5758 5755 5753 5749 5745 5743 5740 5737 5735 5732 5730 5727 5725 5724 5720 5718 5715 5713 5712 5710 5709 5707 5706 5704 5701 5700 5699 5699 5697 5698 5698 5698 5699 5700 5701 5701 5703 5704 5705 5707 5709 5711 5713 5716 5721 5725 5732 5738 5746
5763 5760 5757 5754 5750 5747 5744 5742 5740 5736 5733 5731 5728 5725 5723 5721 5718 5716 5713 5711 5708 5706 5703 5701 5700 5699 5696 5695 5693 5692 5690 5690 5689 5688 5687 5687 5687 5687 5687 5688 5689 5690 5692 5694 5696 5698 5700 5701 5704 5708 5712 5719 5725 5732
5753 5749 5746 5743 5740 5737 5734 5731 5728 5726 5723 5720 5718 5716 5713 5711 5709 5706 5703 5701 5699 5697 5695 5693 5690 5689 5687 5685 5684 5683 5682 5680 5680 5679 5678 5677 5676 5676 5676 5676 5677 5680 5681 5683 5684 5687 5688 5690 5692 5696 5701 5707 5714 5720
5741 5738 5735 5732 5729 5726 5723 5721 5719 5716 5713 5710 5708 5706 5703 5700 5698 5695 5694 5692 5690 5690 5687 5684 5682 5680 5678 5676 5675 5674 5673 5672 5671 5670 5669 5668 5667 5666 5666 5666 5670 5671 5670 5669 5673 5677 5678 5681 5682 5686 5690 5695 5702 5710
5731 5728 5725 5722 5719 5716 5714 5711 5708 5705 5702 5700 5698 5696 5694 5691 5688 5687 5686 5685 5682 5680 5679 5677 5675 5672 5670 5669 5668 5666 5666 5665 5664 5664 5663 5662 5660 5658 5659 5661 5660 5655 5656 5660 5666 5669 5669 5674 5675 5676 5680 5685 5692 5700
5721 5718 5714 5712 5709 5706 5703 5700 5698 5695 5692 5690 5688 5686 5685 5683 5681 5681 5680 5678 5676 5674 5672 5670 5668 5666 5664 5663 5662 5661 5661 5660 5659 5658 5657 5655 5654 5651 5652 5653 5648 5652 5654 5657 5659 5660 5662 5663 5664 5665 5671 5676 5682 5690
5710 5707 5704 5701 5698 5696 5693 5691 5689 5686 5683 5681 5680 5678 5677 5677 5675 5675 5673 5672 5670 5669 5667 5665 5664 5662 5660 5658 5658 5657 5656 5655 5654 5654 5652 5650 5649 5647 5647 5647 5647 5648 5649 5651 5652 5654 5655 5655 5658 5659 5663 5668 5674 5682
5701 5698 5696 5693 5690 5687 5685 5683 5681 5679 5676 5675 5674 5673 5673 5672 5671 5670 5668 5667 5666 5666 5663 5662 5661 5659 5657 5655 5653 5653 5651 5651 5651 5650 5648 5648 5645 5645 5645 5644 5644 5645 5646 5647 5648 5649 5650 5651 5652 5654 5658 5662 5668 5675
5694 5691 5689 5686 5682 5680 5678 5676 5675 5673 5672 5670 5670 5669 5668 5667 5666 5666 5664 5663 5662 5662 5661 5661 5660 5657 5656 5653 5651 5650 5649 5648 5648 5648 5646 5645 5644 5643 5641 5641 5641 5641 5642 5643 5643 5643 5644 5645 5646 5649 5654 5658 5664 5669
5686 5684 5683 5680 5677 5675 5673 5672 5671 5670 5669 5667 5666 5665 5664 5663 5662 5662 5661 5660 5660 5661 5660 5660 5658 5656 5653 5651 5649 5649 5648 5648 5647 5647 5644 5644 5642 5640 5639 5638 5637 5637 5637 5638 5638 5638 5639 5640 5643 5645 5649 5654 5659 5663
5680 5679 5677 5675 5672 5671 5670 5669 5668 5666 5665 5664 5662 5661 5660 5660 5659 5659 5658 5658 5659 5659 5659 5658 5657 5655 5653 5651 5650 5650 5648 5647 5646 5645 5643 5641 5640 5637 5635 5632 5632 5634 5634 5635 5635 5635 5636 5638 5639 5642 5645 5650 5654 5660
5674 5673 5672 5670 5669 5668 5666 5665 5664 5662 5661 5660 5659 5658 5657 5657 5657 5656 5656 5657 5657 5658 5659 5657 5656 5655 5653 5652 5650 5649 5648 5647 5646 5645 5642 5640 5637 5636 5634 5632 5632 5631 5632 5632 5633 5633 5634 5636 5636 5638 5642 5647 5652 5658
5667 5667 5666 5666 5665 5664 5663 5661 5660 5658 5657 5657 5656 5654 5654 5654 5654 5654 5654 5656 5656 5657 5657 5656 5655 5654 5653 5652 5651 5650 5650 5647 5645 5643 5641 5636 5634 5635 5633 5631 5630 5630 5630 5631 5632 5632 5632 5632 5633 5636 5639 5643 5648 5654
5661 5660 5660 5660 5660 5659 5658 5657 5656 5655 5654 5653 5652 5652 5651 5651 5651 5652 5653 5654 5655 5655 5656 5656 5656 5655 5654 5653 5652 5651 5649 5647 5646 5643 5639 5638 5636 5634 5633 5632 5630 5630 5630 5630 5630 5630 5631 5631 5633 5635 5639 5642 5646 5652
5654 5654 5653 5653 5654 5654 5654 5654 5653 5652 5651 5650 5649 5649 5649 5649 5649 5650 5652 5653 5653 5654 5655 5655 5655 5655 5655 5654 5653 5652 5651 5649 5646 5643 5642 5639 5637 5634 5633 5633 5631 5629 5629 5629 5628 5629 5630 5631 5633 5637 5640 5641 5644 5650
5648 5648 5647 5647 5648 5648 5649 5649 5649 5648 5647 5646 5646 5646 5646 5646 5647 5648 5650 5651 5652 5653 5654 5655 5656 5656 5656 5655 5654 5653 5651 5650 5647 5645 5642 5640 5638 5637 5636 5633 5630 5629 5629 5629 5629 5630 5631 5633 5635 5637 5640 5643 5644 5648
5642 5642 5642 5642 5642 5643 5644 5644 5645 5644 5644 5644 5643 5643 5644 5644 5645 5646 5647 5648 5650 5651 5653 5654 5655 5656 5656 5656 5654 5654 5653 5651 5648 5645 5644 5642 5641 5639 5637 5634 5631 5630 5630 5630 5631 5632 5634 5636 5638 5639 5641 5644 5648 5650
5636 5637 5637 5637 5638 5639 5640 5641 5641 5641 5641 5640 5641 5641 5641 5642 5642 5643 5645 5646 5648 5650 5651 5653 5654 5655 5656 5656 5656 5655 5653 5651 5649 5648 5647 5645 5644 5642 5639 5636 5634 5632 5631 5632 5633 5634 5635 5637 5638 5640 5642 5643 5644 5645
5631 5632 5633 5634 5635 5635 5636 5637 5637 5637 5637 5638 5638 5638 5639 5640 5640 5641 5642 5644 5646 5648 5650 5652 5653 5655 5656 5656 5656 5656 5655 5653 5651 5650 5648 5647 5646 5643 5641 5639 5636 5634 5634 5635 5635 5636 5638 5639 5640 5642 5642 5644 5643 5645
5626 5627 5629 5630 5631 5632 5633 5633 5634 5634 5635 5635 5635 5636 5637 5637 5638 5639 5641 5643 5645 5647 5650 5652 5655 5656 5657 5657 5656 5655 5654 5653 5652 5651 5649 5648 5647 5645 5643 5642 5640 5638 5636 5637 5636 5638 5641 5641 5641 5642 5643 5645 5646 5647
5622 5624 5625 5626 5628 5629 5630 5630 5631 5632 5632 5633 5633 5634 5635 5636 5636 5638 5640 5642 5644 5647 5649 5652 5654 5655 5656 5657 5656 5656 5655 5653 5651 5651 5650 5649 5648 5647 5646 5645 5644 5642 5641 5640 5641 5641 5642 5642 5643 5643 5643 5645 5647 5648
5618 5620 5621 5623 5626 5626 5628 5628 5629 5629 5630 5630 5631 5632 5633 5634 5635 5637 5639 5641 5644 5647 5649 5651 5653 5655 5656 5656 5656 5656 5655 5654 5653 5652 5651 5650 5649 5649 5648 5648 5647 5646 5645 5644 5644 5644 5644 5644 5645 5646 5646 5647 5648 5649
5614 5616 5618 5621 5623 5624 5625 5626 5626 5627 5628 5629 5630 5631 5631 5632 5634 5636 5638 5641 5643 5646 5648 5650 5652 5653 5655 5655 5655 5655 5655 5654 5653 5652 5652 5651 5650 5650 5650 5649 5649 5648 5647 5646 5647 5646 5646 5646 5646 5647 5647 5647 5648 5648
5612 5615 5617 5619 5621 5622 5623 5623 5624 5625 5627 5628 5629 5630 5631 5633 5634 5636 5638 5642 5644 5645 5647 5649 5650 5652 5654 5654 5655 5654 5654 5653 5653 5653 5653 5653 5652 5652 5652 5652 5651 5651 5650 5649 5648 5648 5648 5647 5647 5647 5646 5646 5646 5646
5609 5612 5615 5617 5619 5620 5621 5622 5623 5624 5625 5627 5629 5630 5631 5633 5635 5637 5640 5642 5644 5646 5647 5648 5650 5651 5653 5654 5654 5654 5654 5653 5653 5654 5655 5654 5654 5654 5653 5653 5653 5653 5652 5652 5652 5651 5650 5649 5648 5647 5647 5646 5646 5646
5608 5611 5614 5616 5617 5618 5619 5621 5622 5624 5625 5628 5630 5630 5631 5634 5636 5638 5639 5639 5643 5645 5646 5647 5649 5651 5652 5653 5653 5654 5654 5655 5655 5655 5655 5655 5655 5655 5655 5655 5654 5654 5653 5653 5652 5651 5650 5650 5649 5648 5647 5646 5645 5644
5607 5610 5613 5615 5616 5617 5619 5620 5622 5624 5626 5628 5630 5630 5632 5635 5637 5637 5638 5639 5641 5643 5645 5646 5649 5651 5652 5653 5654 5654 5655 5656 5657 5657 5657 5656 5656 5656 5656 5655 5654 5654 5653 5652 5652 5650 5649 5648 5647 5646 5645 5644 5642 5641
5607 5610 5613 5614 5616 5617 5618 5620 5622 5624 5627 5629 5630 5631 5634 5636 5638 5638 5638 5638 5640 5643 5647 5649 5651 5652 5652 5653 5654 5655 5656 5657 5657 5657 5657 5657 5657 5656 5656 5655 5654 5654 5653 5652 5651 5649 5648 5646 5645 5643 5642 5640 5638 5637
5607 5610 5613 5614 5616 5617 5619 5621 5623 5626 5628 5631 5632 5634 5636 5638 5639 5640 5641 5643 5645 5647 5649 5650 5651 5652 5653 5653 5654 5655 5656 5656 5657 5657 5657 5657 5656 5656 5655 5654 5653 5653 5652 5650 5649 5647 5645 5644 5642 5640 5638 5636 5635 5633
5608 5611 5613 5615 5617 5618 5620 5622 5625 5628 5630 5632 5634 5636 5637 5638 5640 5642 5643 5645 5647 5648 5650 5651 5652 5653 5654 5654 5655 5655 5655 5655 5655 5656 5656 5655 5654 5654 5653 5652 5651 5650 5649 5647 5645 5643 5642 5639 5637 5635 5632 5630 5628 5626
5610 5612 5614 5616 5618 5619 5621 5624 5627 5630 5632 5634 5635 5637 5638 5640 5642 5644 5645 5647 5648 5649 5650 5651 5652 5653 5654 5654 5654 5654 5654 5654 5654 5654 5653 5652 5652 5651 5650 5649 5648 5646 5644 5642 5641 5639 5637 5635 5633 5630 5627 5624 5622 5619
5612 5614 5616 5618 5620 5622 5625 5628 5630 5632 5634 5636 5637 5639 5640 5643 5644 5646 5647 5648 5649 5650 5650 5651 5652 5652 5653 5653 5653 5653 5653 5652 5652 5651 5650 5649 5648 5646 5645 5644 5642 5641 5639 5637 5635 5633 5630 5628 5625 5623 5619 5616 5614 5612
Wind_Speed
32 34 35 36 37 36 37 37 38 37 36 37 37 36 35 36 34 32 31 32 33 33 35 32 31 32 33 34 33 34 35 37 39 39 38 38 39 38 40 39 38 39 39 40 41 44 46 44 44 41 45 46 43 43
35 35 35 36 37 38 39 38 38 37 38 37 37 35 34 33 34 34 34 35 34 32 34 31 31 30 31 31 30 31 33 34 33 35 35 35 35 35 34 34 35 35 35 36 37 37 39 41 43 42 40 40 45 44
37 39 41 41 40 40 39 39 39 38 38 38 37 36 34 33 33 35 35 34 32 30 31 30 28 29 28 28 27 27 29 27 28 29 32 33 34 33 33 34 34 34 34 34 33 33 34 38 40 40 40 38 42 43
41 42 42 41 41 39 38 39 38 37 36 36 35 34 33 34 34 35 34 31 28 27 28 28 25 25 27 27 27 26 26 26 27 28 29 28 29 32 33 33 33 33 33 33 32 31 32 35 37 39 39 35 36 40
41 42 42 40 40 38 37 38 39 38 37 36 36 35 33 32 32 32 29 27 27 26 27 27 25 24 24 25 25 25 25 24 22 22 22 24 26 28 28 30 28 29 32 35 33 30 31 31 33 33 35 36 32 33
39 40 39 39 40 38 38 39 38 39 39 36 34 33 32 30 27 24 24 25 25 23 23 23 22 21 21 20 20 19 19 19 19 17 17 18 22 26 25 20 21 31 35 33 29 26 27 25 30 32 31 32 31 31
40 41 40 40 39 37 37 37 37 37 35 33 29 29 25 21 21 21 22 22 21 22 21 20 19 16 15 14 15 15 15 16 16 16 18 20 21 21 19 17 29 26 25 23 20 22 21 25 29 30 28 27 31 31
39 39 38 35 34 33 33 32 32 31 30 27 25 22 19 19 19 20 20 19 19 19 17 14 12 13 14 15 14 14 15 15 15 14 17 17 15 15 15 16 19 19 17 15 16 18 21 24 19 27 29 28 29 31
34 32 32 32 32 31 29 26 26 24 21 20 18 16 17 17 18 19 17 17 16 13 10 9 9 11 12 13 12 11 11 12 11 13 13 11 12 11 9 8 11 12 12 13 14 15 18 22 21 24 25 25 29 32
30 28 28 30 29 27 25 21 18 15 15 14 14 14 15 17 17 15 15 14 11 8 6 7 10 13 11 10 10 9 8 7 7 8 8 7 7 5 7 8 9 11 13 14 14 15 17 20 23 21 22 23 24 27
26 26 28 28 24 20 18 15 14 13 14 14 15 15 15 14 13 13 12 10 6 3 3 7 10 12 13 9 7 5 5 5 5 6 8 5 9 11 8 8 7 7 9 12 14 17 17 18 20 20 19 22 24 28
24 24 24 22 19 16 14 14 14 15 15 17 16 13 13 12 11 11 8 5 3 2 3 7 9 12 10 9 7 6 9 7 8 12 8 8 7 10 13 10 8 8 9 9 12 15 14 14 18 21 18 17 24 27
21 22 21 19 18 16 15 15 16 18 17 15 11 12 11 10 9 8 6 3 3 5 4 6 7 10 7 7 9 8 7 7 10 14 12 10 7 8 13 10 4 5 7 8 10 12 9 11 15 17 15 18 23 25
20 21 20 19 18 17 16 16 16 14 12 11 10 11 10 9 8 6 5 2 2 4 3 4 6 7 7 10 11 12 17 18 13 15 14 9 7 6 8 5 4 4 3 4 3 6 8 12 10 12 14 18 21 26
22 21 21 20 19 17 16 15 14 13 12 11 11 9 9 9 7 6 4 3 3 3 1 2 3 6 8 12 12 9 13 26 19 19 11 12 7 4 4 6 7 6 5 5 4 3 6 7 8 9 13 19 23 29
22 21 20 20 20 18 16 13 13 13 12 10 9 9 8 7 6 6 4 4 4 4 2 2 4 9 12 8 11 7 10 15 12 8 6 18 7 5 5 9 10 8 6 4 3 2 4 10 10 9 8 11 23 27
20 19 18 18 19 18 15 14 13 12 10 9 8 8 7 6 6 6 5 5 5 6 5 5 4 2 4 2 3 5 9 11 11 13 12 22 19 16 13 13 11 6 5 5 4 3 5 8 8 8 10 12 13 22
19 15 16 15 15 14 13 11 11 10 9 8 8 7 6 6 6 6 7 7 8 9 8 9 7 4 2 3 5 2 5 7 14 19 21 20 18 14 14 13 12 6 4 4 4 5 8 8 11 15 15 11 9 11
17 15 14 13 11 10 10 11 10 9 8 8 8 6 6 6 6 8 8 9 9 11 12 14 9 3 1 1 4 5 6 9 13 14 15 15 16 16 16 12 13 9 6 7 5 5 6 7 9 8 13 15 16 17
15 14 12 10 10 10 10 10 9 8 8 8 8 6 6 7 7 8 8 10 11 13 14 17 12 3 1 3 5 7 9 10 12 12 12 12 11 12 13 15 14 8 11 8 4 8 7 3 7 8 11 7 7 10
14 13 11 11 9 9 9 8 7 7 7 7 7 6 7 7 7 7 10 10 13 14 14 15 10 7 3 3 5 9 12 12 10 9 9 11 10 8 9 13 18 17 13 11 5 6 6 5 3 3 2 6 11 7
13 14 12 10 9 8 7 6 5 6 6 6 6 6 6 6 7 9 9 11 15 12 13 15 13 7 1 4 6 6 8 10 9 7 7 8 7 8 8 10 9 13 14 9 7 5 2 3 10 11 8 3 5 6
13 13 13 12 9 7 6 6 6 6 5 5 5 5 5 7 9 12 13 15 15 12 12 12 11 8 6 5 6 3 7 7 8 6 6 7 5 4 5 7 6 6 8 11 10 9 3 2 5 5 6 6 5 6
13 12 11 12 8 6 5 5 5 6 6 5 5 2 6 9 13 14 15 15 14 13 10 9 8 8 5 0 2 5 9 5 3 3 6 5 2 4 4 4 5 7 6 6 5 4 5 4 2 3 3 5 6 7
14 13 13 13 9 4 5 5 5 7 8 9 11 7 8 10 10 12 17 13 12 11 9 8 8 9 8 5 3 6 4 2 3 3 5 7 8 10 10 10 10 10 10 8 8 6 5 4 3 2 2 1 3 4
14 12 12 11 8 7 7 6 7 9 10 9 9 8 8 9 13 15 15 13 8 4 5 9 9 8 6 4 1 0 4 4 4 4 4 6 7 8 8 8 8 7 7 8 8 7 6 6 6 6 5 4 4 3
15 14 11 6 5 7 7 8 9 10 9 12 8 1 10 16 11 2 3 15 10 5 7 9 9 7 6 4 3 3 4 5 5 4 5 5 5 5 5 5 5 5 6 6 6 5 5 5 5 5 5 6 7 8
15 11 9 6 5 6 7 8 10 10 12 13 2 10 15 17 6 3 8 9 11 11 12 11 9 7 3 4 5 5 5 4 4 4 3 2 3 3 3 3 3 4 4 5 5 6 7 8 9 9 9 10 10 11
14 12 8 5 6 7 8 10 11 13 14 7 8 14 17 10 2 3 4 13 20 18 16 12 7 7 7 7 7 6 5 4 3 2 1 1 2 3 3 2 2 4 5 7 8 10 11 11 11 11 12 12 14 15
13 13 7 5 7 8 10 12 14 17 13 10 10 10 9 7 5 9 10 14 15 11 7 8 4 4 3 3 4 3 2 1 1 1 3 4 5 5 4 4 5 8 10 11 13 13 15 15 15 15 15 16 17 18
14 11 9 7 8 9 10 12 15 18 14 9 8 8 8 5 11 10 11 11 9 8 6 4 4 3 3 2 1 2 3 4 4 4 5 5 6 7 8 9 11 13 14 15 15 15 16 17 17 18 19 20 21 22
13 10 8 9 10 11 12 14 18 14 11 9 8 7 8 13 12 12 11 10 8 5 4 4 3 2 2 2 3 4 5 5 6 7 8 8 8 9 11 13 14 16 17 17 17 17 18 19 21 21 22 22 23 23
10 10 11 10 11 13 16 17 12 10 9 8 9 15 14 14 11 9 6 4 2 1 2 2 3 4 5 5 5 5 6 8 9 10 12 13 14 15 15 16 17 17 17 17 18 19 20 22 23 24 23 22 21 20
Wind_Direction
292 294 295 295 294 296 296 296 296 293 294 296 295 295 294 292 291 290 288 286 288 289 287 286 285 283 282 280 280 277 275 273 272 270 270 268 266 264 264 265 264 263 261 257 255 255 255 255 255 251 242 243 240 234
292 292 294 294 295 296 298 298 296 295 295 293 292 291 291 289 290 290 293 290 291 290 287 287 286 284 282 282 280 277 274 273 275 275 275 271 268 264 261 261 259 258 257 255 254 254 253 250 250 248 246 235 236 233
294 295 296 296 298 299 299 298 297 297 295 295 293 292 293 292 293 297 297 295 292 290 287 287 287 285 283 279 279 279 280 280 277 275 273 273 271 268 264 258 255 254 254 256 255 253 250 250 250 248 245 235 230 228
297 298 299 299 298 299 298 296 296 295 295 294 293 292 294 294 296 299 297 294 291 290 289 289 289 286 283 281 281 281 279 276 276 276 275 274 269 263 260 259 255 253 251 251 252 250 250 250 248 247 248 243 232 227
299 299 300 301 300 298 299 298 296 295 295 293 292 291 293 293 296 296 291 291 293 293 292 292 290 285 282 281 281 280 279 280 279 277 275 272 268 265 260 258 262 257 252 249 247 248 251 243 247 246 244 243 235 224
299 300 300 301 300 298 296 295 294 293 292 291 291 292 293 293 292 290 292 294 297 296 295 294 291 289 286 283 281 278 279 279 279 279 276 270 265 264 264 268 260 243 242 245 248 252 255 245 248 248 240 235 230 216
300 299 297 297 295 295 295 295 294 293 292 292 291 292 290 288 289 292 294 296 297 297 296 297 296 292 290 286 284 281 279 276 277 279 280 279 276 273 269 253 253 255 256 256 254 246 241 236 237 236 233 229 218 213
301 300 297 295 295 295 295 294 294 294 294 293 292 286 284 287 291 297 296 296 297 300 302 302 304 304 300 293 284 278 275 274 274 277 281 287 279 274 265 260 256 259 254 245 244 245 235 246 246 230 225 223 216 206
304 302 299 297 298 297 296 296 297 297 299 296 291 290 292 294 300 296 296 296 301 301 305 310 319 323 319 309 302 293 285 275 274 281 287 283 275 274 285 271 257 249 245 245 249 249 236 239 246 232 231 224 209 203
304 304 304 305 304 299 296 294 295 301 302 300 298 297 298 299 298 295 295 297 297 301 313 334 339 337 336 325 309 307 301 300 295 297 296 295 292 295 280 264 259 255 253 255 251 246 241 238 238 240 230 221 203 201
301 300 304 306 305 299 293 293 296 300 302 303 303 303 301 298 294 295 295 291 292 303 331 349 346 354 351 349 -0 1 354 336 306 310 315 291 277 301 280 269 258 260 245 237 236 240 242 238 235 243 227 216 207 196
293 295 303 307 306 299 292 295 298 299 299 302 302 302 298 292 295 295 282 269 262 207 1 353 351 350 356 5 2 0 352 333 340 21 2 325 291 326 313 310 269 276 266 246 240 245 246 242 241 240 237 220 193 183
283 289 295 300 302 295 296 297 301 300 297 299 297 295 292 291 294 283 248 244 225 208 344 336 349 357 356 2 355 41 68 65 38 16 4 351 327 290 296 308 299 275 258 239 233 244 243 265 263 244 227 203 193 189
280 284 288 286 293 293 295 302 308 305 301 295 297 296 285 282 278 259 240 229 212 212 295 331 3 355 9 33 46 57 41 32 15 351 6 338 67 346 345 12 347 319 272 236 249 259 267 256 226 211 199 201 192 193
280 281 281 277 278 287 292 301 305 301 298 293 291 288 279 279 267 245 229 213 215 212 275 49 15 51 37 70 68 38 21 27 23 23 43 23 5 25 25 8 341 335 329 305 276 231 249 220 194 197 202 211 203 182
275 278 274 270 269 280 284 288 299 297 298 293 283 279 277 270 251 235 222 213 203 202 168 136 105 75 88 98 59 26 6 2 6 23 54 38 335 4 34 17 341 345 2 348 1 47 236 211 199 204 219 211 205 195
272 270 268 267 268 272 271 275 288 289 288 282 274 274 269 250 234 226 215 214 200 196 185 168 148 103 57 17 32 357 41 16 45 50 72 38 41 43 31 5 356 9 34 56 61 109 230 217 227 215 186 180 186 198
262 262 268 265 264 260 264 270 277 279 278 273 266 267 256 238 228 222 215 205 197 190 177 170 159 164 281 327 332 32 10 11 359 24 29 32 31 29 22 14 13 15 66 87 103 142 186 211 230 230 218 210 225 231
242 265 268 255 249 252 262 265 270 271 268 264 260 259 244 234 227 222 213 201 193 186 179 178 182 194 30 73 34 31 3 342 350 6 11 14 19 9 13 22 20 40 70 90 108 135 181 195 197 215 244 257 251 246
242 257 246 251 253 258 259 264 263 263 260 253 251 244 233 228 221 215 206 194 197 193 187 184 189 183 148 349 4 9 5 5 4 2 9 14 23 11 9 22 33 41 89 126 184 148 140 177 198 190 163 130 114 122
248 240 242 246 246 253 257 252 255 259 254 246 243 232 226 225 217 208 194 198 190 187 183 187 197 158 134 16 8 14 359 352 2 5 11 29 34 31 26 34 34 51 66 123 106 145 139 120 108 75 88 149 122 104
232 238 249 243 235 244 242 240 247 247 243 237 228 218 220 215 205 190 181 174 177 181 184 187 170 156 121 355 8 2 352 351 358 15 28 36 34 40 48 53 65 50 57 82 118 124 163 341 142 95 104 86 156 152
238 243 236 221 220 225 237 241 245 239 228 216 209 211 211 203 186 174 173 175 178 176 179 191 212 229 244 281 314 327 343 335 341 357 10 353 359 24 58 47 50 58 62 60 61 56 44 168 92 156 206 200 177 174
226 217 209 198 206 216 226 231 232 219 198 179 157 147 192 183 178 177 179 177 181 189 189 200 210 204 197 144 213 323 329 332 0 8 6 12 50 51 59 41 44 43 39 39 59 92 85 76 108 199 177 179 204 221
201 201 199 198 201 215 219 222 216 193 181 179 174 188 179 172 184 189 181 181 179 180 190 196 198 203 213 238 287 323 327 124 27 54 48 59 69 70 70 67 66 66 64 60 56 51 48 38 18 6 350 303 235 231
187 187 186 189 199 211 205 199 186 178 181 179 162 157 164 172 166 172 174 173 177 180 207 206 205 197 201 203 234 46 56 88 95 89 86 75 68 65 65 61 56 57 58 58 57 54 45 36 28 22 17 8 355 335
179 178 177 179 183 191 196 188 178 179 178 166 157 211 168 163 159 154 222 211 185 191 160 148 157 174 167 172 152 75 105 102 109 112 97 85 69 61 50 45 42 35 29 25 19 15 12 6 354 338 327 320 316 312
183 183 181 191 191 186 184 178 174 167 162 180 171 176 170 185 210 133 148 180 199 178 170 156 157 165 148 157 129 126 124 127 142 137 118 78 31 11 356 352 11 26 19 6 355 349 344 336 328 321 315 312 310 308
186 186 191 190 181 181 179 172 164 160 167 165 118 142 177 188 166 147 130 129 125 131 130 109 137 175 176 156 146 144 151 155 150 121 28 334 316 313 316 323 357 0 348 340 339 340 338 334 327 322 320 319 316 313
185 190 196 186 184 183 177 169 162 159 160 137 127 138 155 166 140 145 134 135 130 138 142 168 185 148 132 148 152 156 158 166 202 286 286 286 287 283 272 293 311 317 321 324 327 327 328 327 324 321 319 317 315 312
181 188 183 175 168 165 165 164 163 159 155 149 140 147 159 134 129 134 147 156 155 155 160 149 163 173 179 186 199 282 294 292 286 281 278 281 281 276 279 289 297 302 308 313 315 314 315 316 318 319 319 318 316 313
174 173 165 162 163 160 159 155 156 157 160 157 157 146 153 143 134 130 135 146 156 168 183 194 210 231 248 265 280 289 293 292 294 296 295 293 291 290 293 297 300 303 306 305 304 305 308 312 316 318 316 315 312 309
160 155 151 147 142 143 142 146 146 144 145 153 131 133 135 140 136 134 133 123 129 176 215 240 253 261 263 262 269 285 295 297 298 301 304 306 305 303 301 301 301 300 298 300 304 308 312 316 317 314 313 313 310 308